Time,TemperatureF,DewpointF,PressureIn,WindDirection,WindDirectionDegrees,WindSpeedMPH,WindSpeedGustMPH,Humidity,HourlyPrecipIn,Conditions,Clouds,dailyrainin,SoftwareType,DateUTC
2013-03-21 00:00:00,28.8,12.9,29.83,NE,42,0.0,0.0,51,0.00,,---,0.00,VWS V14.01,2013-03-21 04:00:00,
2013-03-21 00:05:00,28.6,12.8,29.83,South,171,0.0,0.0,51,0.00,,---,0.00,VWS V14.01,2013-03-21 04:05:00,
2013-03-21 00:10:00,28.4,12.6,29.83,East,80,2.7,2.7,51,0.00,,---,0.00,VWS V14.01,2013-03-21 04:10:00,
2013-03-21 00:15:00,28.2,12.4,29.83,North,351,0.0,0.0,51,0.00,,---,0.00,VWS V14.01,2013-03-21 04:15:00,
2013-03-21 00:20:00,28.0,12.3,29.83,NE,42,0.0,0.0,51,0.00,,---,0.00,VWS V14.01,2013-03-21 04:20:00,
2013-03-21 00:25:00,28.2,13.3,29.86,North,351,0.0,4.9,53,0.00,,---,0.00,VWS V14.01,2013-03-21 04:25:00,
2013-03-21 00:30:00,28.2,13.3,29.86,North,351,3.1,3.6,53,0.00,,---,0.00,VWS V14.01,2013-03-21 04:30:00,
2013-03-21 00:35:00,28.4,13.5,29.86,WSW,247,0.0,0.0,53,0.00,,---,0.00,VWS V14.01,2013-03-21 04:35:00,
2013-03-21 00:40:00,28.4,13.5,29.86,North,10,0.0,4.9,53,0.00,,---,0.00,VWS V14.01,2013-03-21 04:40:00,
2013-03-21 00:45:00,28.4,13.5,29.86,North,351,4.0,4.0,53,0.00,,---,0.00,VWS V14.01,2013-03-21 04:45:00,
2013-03-21 00:50:00,28.4,13.5,29.86,NW,315,2.7,5.4,53,0.00,,---,0.00,VWS V14.01,2013-03-21 04:50:00,
2013-03-21 00:55:00,28.2,13.3,29.86,North,351,4.0,6.3,53,0.00,,---,0.00,VWS V14.01,2013-03-21 04:55:00,
2013-03-21 01:00:00,28.0,13.1,29.86,NW,313,0.0,0.0,53,0.00,,---,0.00,VWS V14.01,2013-03-21 05:00:00,
2013-03-21 01:05:00,28.0,13.1,29.86,NNW,341,3.6,3.6,53,0.00,,---,0.00,VWS V14.01,2013-03-21 05:05:00,
2013-03-21 01:10:00,27.9,14.2,29.86,NW,326,4.5,4.9,56,0.00,,---,0.00,VWS V14.01,2013-03-21 05:10:00,
2013-03-21 01:15:00,27.9,14.2,29.86,NNW,344,4.9,4.9,56,0.00,,---,0.00,VWS V14.01,2013-03-21 05:15:00,
2013-03-21 01:20:00,27.7,14.0,29.86,North,351,2.7,5.4,56,0.00,,---,0.00,VWS V14.01,2013-03-21 05:20:00,
2013-03-21 01:25:00,27.7,14.0,29.83,East,90,3.1,6.9,56,0.00,,---,0.00,VWS V14.01,2013-03-21 05:25:00,
2013-03-21 01:30:00,27.5,13.9,29.83,NNW,347,0.0,0.0,56,0.00,,---,0.00,VWS V14.01,2013-03-21 05:30:00,
2013-03-21 01:35:00,27.3,13.7,29.83,NE,38,3.1,3.1,56,0.00,,---,0.00,VWS V14.01,2013-03-21 05:35:00,
2013-03-21 01:40:00,27.3,13.7,29.83,North,8,0.0,3.1,56,0.00,,---,0.00,VWS V14.01,2013-03-21 05:40:00,
2013-03-21 01:45:00,27.1,13.5,29.83,North,351,2.7,3.6,56,0.00,,---,0.00,VWS V14.01,2013-03-21 05:45:00,
2013-03-21 01:50:00,27.1,12.7,29.83,NNW,343,5.4,5.8,54,0.00,,---,0.00,VWS V14.01,2013-03-21 05:50:00,
2013-03-21 01:55:00,27.0,12.6,29.83,NNW,331,4.9,6.3,54,0.00,,---,0.00,VWS V14.01,2013-03-21 05:55:00,
2013-03-21 02:00:00,27.0,12.6,29.83,North,351,2.7,4.5,54,0.00,,---,0.00,VWS V14.01,2013-03-21 06:00:00,
2013-03-21 02:05:00,27.0,12.6,29.83,North,351,3.1,5.4,54,0.00,,---,0.00,VWS V14.01,2013-03-21 06:05:00,
2013-03-21 02:10:00,26.8,12.4,29.83,NNW,344,4.9,4.9,54,0.00,,---,0.00,VWS V14.01,2013-03-21 06:10:00,
2013-03-21 02:15:00,26.6,12.2,29.83,NW,310,3.1,4.5,54,0.00,,---,0.00,VWS V14.01,2013-03-21 06:15:00,
2013-03-21 02:20:00,26.4,12.0,29.83,NW,310,4.0,4.0,54,0.00,,---,0.00,VWS V14.01,2013-03-21 06:20:00,
2013-03-21 02:25:00,26.4,12.0,29.83,NNW,344,9.2,9.2,54,0.00,,---,0.00,VWS V14.01,2013-03-21 06:25:00,
2013-03-21 02:30:00,26.4,12.0,29.83,NNW,342,5.8,6.3,54,0.00,,---,0.00,VWS V14.01,2013-03-21 06:30:00,
2013-03-21 02:35:00,26.2,10.6,29.83,North,351,0.0,3.6,51,0.00,,---,0.00,VWS V14.01,2013-03-21 06:35:00,
2013-03-21 02:40:00,26.2,10.6,29.83,North,351,3.1,4.5,51,0.00,,---,0.00,VWS V14.01,2013-03-21 06:40:00,
2013-03-21 02:45:00,26.2,10.6,29.83,WNW,294,0.0,0.0,51,0.00,,---,0.00,VWS V14.01,2013-03-21 06:45:00,
2013-03-21 02:50:00,26.1,10.4,29.83,NW,314,0.0,0.0,51,0.00,,---,0.00,VWS V14.01,2013-03-21 06:50:00,
2013-03-21 02:55:00,25.9,10.3,29.83,NW,324,0.0,0.0,51,0.00,,---,0.00,VWS V14.01,2013-03-21 06:55:00,
2013-03-21 03:00:00,25.7,10.5,29.83,NW,309,3.6,4.9,52,0.00,,---,0.00,VWS V14.01,2013-03-21 07:00:00,
2013-03-21 03:05:00,25.5,10.4,29.83,North,351,0.0,0.0,52,0.00,,---,0.00,VWS V14.01,2013-03-21 07:05:00,
2013-03-21 03:10:00,25.3,10.2,29.83,WNW,293,3.1,5.8,52,0.00,,---,0.00,VWS V14.01,2013-03-21 07:10:00,
2013-03-21 03:15:00,25.2,10.0,29.83,North,351,3.1,3.1,52,0.00,,---,0.00,VWS V14.01,2013-03-21 07:15:00,
2013-03-21 03:20:00,25.0,9.9,29.83,NNE,16,3.1,4.9,52,0.00,,---,0.00,VWS V14.01,2013-03-21 07:20:00,
2013-03-21 03:25:00,24.8,9.7,29.80,North,351,3.6,5.4,52,0.00,,---,0.00,VWS V14.01,2013-03-21 07:25:00,
2013-03-21 03:30:00,24.6,9.5,29.80,West,271,2.7,3.1,52,0.00,,---,0.00,VWS V14.01,2013-03-21 07:30:00,
2013-03-21 03:35:00,24.4,9.4,29.80,North,351,3.1,4.0,52,0.00,,---,0.00,VWS V14.01,2013-03-21 07:35:00,
2013-03-21 03:40:00,24.3,9.2,29.80,North,351,3.1,3.6,52,0.00,,---,0.00,VWS V14.01,2013-03-21 07:40:00,
2013-03-21 03:45:00,24.1,9.0,29.80,NNW,347,2.7,4.0,52,0.00,,---,0.00,VWS V14.01,2013-03-21 07:45:00,
2013-03-21 03:50:00,23.9,8.9,29.80,North,351,0.0,0.0,52,0.00,,---,0.00,VWS V14.01,2013-03-21 07:50:00,
2013-03-21 03:55:00,23.9,8.9,29.80,North,351,2.7,4.0,52,0.00,,---,0.00,VWS V14.01,2013-03-21 07:55:00,
2013-03-21 04:00:00,23.7,8.7,29.80,North,351,0.0,0.0,52,0.00,,---,0.00,VWS V14.01,2013-03-21 08:00:00,
2013-03-21 04:05:00,23.5,8.5,29.80,North,351,0.0,0.0,52,0.00,,---,0.00,VWS V14.01,2013-03-21 08:05:00,
2013-03-21 04:10:00,23.4,7.5,29.80,North,351,2.7,3.6,50,0.00,,---,0.00,VWS V14.01,2013-03-21 08:10:00,
2013-03-21 04:15:00,23.2,7.3,29.80,North,351,0.0,0.0,50,0.00,,---,0.00,VWS V14.01,2013-03-21 08:15:00,
2013-03-21 04:20:00,23.0,7.1,29.80,NW,324,0.0,0.0,50,0.00,,---,0.00,VWS V14.01,2013-03-21 08:20:00,
2013-03-21 04:25:00,23.0,7.1,29.80,WNW,300,2.7,3.1,50,0.00,,---,0.00,VWS V14.01,2013-03-21 08:25:00,
2013-03-21 04:30:00,22.8,7.0,29.80,NW,325,0.0,0.0,50,0.00,,---,0.00,VWS V14.01,2013-03-21 08:30:00,
2013-03-21 04:35:00,22.8,7.0,29.80,NW,313,0.0,0.0,50,0.00,,---,0.00,VWS V14.01,2013-03-21 08:35:00,
2013-03-21 04:40:00,22.6,6.8,29.80,North,351,0.0,0.0,50,0.00,,---,0.00,VWS V14.01,2013-03-21 08:40:00,
2013-03-21 04:45:00,22.5,6.6,29.80,North,351,0.0,0.0,50,0.00,,---,0.00,VWS V14.01,2013-03-21 08:45:00,
2013-03-21 04:50:00,22.5,6.6,29.80,WNW,290,0.0,0.0,50,0.00,,---,0.00,VWS V14.01,2013-03-21 08:50:00,
2013-03-21 04:55:00,22.3,6.5,29.80,WNW,291,0.0,0.0,50,0.00,,---,0.00,VWS V14.01,2013-03-21 08:55:00,
2013-03-21 05:00:00,22.3,6.5,29.80,WNW,298,0.0,0.0,50,0.00,,---,0.00,VWS V14.01,2013-03-21 09:00:00,
2013-03-21 05:05:00,22.1,6.3,29.80,North,351,0.0,0.0,50,0.00,,---,0.00,VWS V14.01,2013-03-21 09:05:00,
2013-03-21 05:10:00,22.1,6.3,29.80,North,351,0.0,0.0,50,0.00,,---,0.00,VWS V14.01,2013-03-21 09:10:00,
2013-03-21 05:15:00,21.9,6.1,29.80,North,351,0.0,0.0,50,0.00,,---,0.00,VWS V14.01,2013-03-21 09:15:00,
2013-03-21 05:20:00,21.6,5.8,29.80,North,351,0.0,0.0,50,0.00,,---,0.00,VWS V14.01,2013-03-21 09:20:00,
2013-03-21 05:25:00,21.4,5.6,29.80,North,351,0.0,0.0,50,0.00,,---,0.00,VWS V14.01,2013-03-21 09:25:00,
2013-03-21 05:30:00,21.2,5.5,29.80,North,351,0.0,0.0,50,0.00,,---,0.00,VWS V14.01,2013-03-21 09:30:00,
2013-03-21 05:35:00,21.0,5.3,29.80,NW,307,0.0,0.0,50,0.00,,---,0.00,VWS V14.01,2013-03-21 09:35:00,
2013-03-21 05:40:00,20.8,5.1,29.80,NNW,345,3.6,3.6,50,0.00,,---,0.00,VWS V14.01,2013-03-21 09:40:00,
2013-03-21 05:45:00,20.8,5.1,29.80,North,351,2.7,3.1,50,0.00,,---,0.00,VWS V14.01,2013-03-21 09:45:00,
2013-03-21 05:50:00,20.8,5.1,29.80,North,351,0.0,0.0,50,0.00,,---,0.00,VWS V14.01,2013-03-21 09:50:00,
2013-03-21 05:55:00,20.8,6.0,29.77,NW,321,0.0,0.0,52,0.00,,---,0.00,VWS V14.01,2013-03-21 09:55:00,
2013-03-21 06:00:00,20.8,6.0,29.77,WNW,290,0.0,0.0,52,0.00,,---,0.00,VWS V14.01,2013-03-21 10:00:00,
2013-03-21 06:05:00,20.8,6.0,29.77,WSW,248,4.0,4.0,52,0.00,,---,0.00,VWS V14.01,2013-03-21 10:05:00,
2013-03-21 06:10:00,20.8,6.0,29.77,West,278,3.1,4.9,52,0.00,,---,0.00,VWS V14.01,2013-03-21 10:10:00,
2013-03-21 06:15:00,20.7,5.8,29.77,North,351,3.6,4.9,52,0.00,,---,0.00,VWS V14.01,2013-03-21 10:15:00,
2013-03-21 06:20:00,20.7,5.8,29.77,North,351,4.0,4.0,52,0.00,,---,0.00,VWS V14.01,2013-03-21 10:20:00,
2013-03-21 06:25:00,20.5,5.7,29.80,NNW,347,3.6,3.6,52,0.00,,---,0.00,VWS V14.01,2013-03-21 10:25:00,
2013-03-21 06:30:00,20.5,5.7,29.80,NNW,332,6.7,7.8,52,0.00,,---,0.00,VWS V14.01,2013-03-21 10:30:00,
2013-03-21 06:35:00,20.8,6.0,29.80,WSW,256,8.7,8.7,52,0.00,,---,0.00,VWS V14.01,2013-03-21 10:35:00,
2013-03-21 06:40:00,21.2,7.6,29.80,WNW,298,3.1,3.6,55,0.00,,---,0.00,VWS V14.01,2013-03-21 10:40:00,
2013-03-21 06:45:00,21.4,7.7,29.80,WNW,295,4.9,5.4,55,0.00,,---,0.00,VWS V14.01,2013-03-21 10:45:00,
2013-03-21 06:50:00,21.4,7.7,29.80,NW,312,4.9,4.9,55,0.00,,---,0.00,VWS V14.01,2013-03-21 10:50:00,
2013-03-21 06:55:00,21.4,7.7,29.80,North,351,3.6,3.6,55,0.00,,---,0.00,VWS V14.01,2013-03-21 10:55:00,
2013-03-21 07:00:00,21.4,7.7,29.80,North,351,2.7,3.6,55,0.00,,---,0.00,VWS V14.01,2013-03-21 11:00:00,
2013-03-21 07:05:00,21.4,7.7,29.80,North,351,3.1,4.0,55,0.00,,---,0.00,VWS V14.01,2013-03-21 11:05:00,
2013-03-21 07:10:00,21.0,6.2,29.80,North,351,4.0,4.5,52,0.00,,---,0.00,VWS V14.01,2013-03-21 11:10:00,
2013-03-21 07:15:00,20.8,7.2,29.80,WNW,287,2.7,2.7,55,0.00,,---,0.00,VWS V14.01,2013-03-21 11:15:00,
2013-03-21 07:20:00,20.8,7.2,29.80,North,351,4.5,4.9,55,0.00,,---,0.00,VWS V14.01,2013-03-21 11:20:00,
2013-03-21 07:25:00,20.8,7.2,29.80,WNW,298,4.0,4.0,55,0.00,,---,0.00,VWS V14.01,2013-03-21 11:25:00,
2013-03-21 07:30:00,21.0,7.4,29.80,West,272,3.1,3.6,55,0.00,,---,0.00,VWS V14.01,2013-03-21 11:30:00,
2013-03-21 07:35:00,21.2,7.6,29.80,North,351,3.1,4.0,55,0.00,,---,0.00,VWS V14.01,2013-03-21 11:35:00,
2013-03-21 07:40:00,21.4,8.5,29.80,WNW,287,0.0,0.0,57,0.00,,---,0.00,VWS V14.01,2013-03-21 11:40:00,
2013-03-21 07:45:00,21.7,8.9,29.80,North,351,0.0,0.0,57,0.00,,---,0.00,VWS V14.01,2013-03-21 11:45:00,
2013-03-21 07:50:00,22.3,10.5,29.80,NNW,347,0.0,0.0,60,0.00,,---,0.00,VWS V14.01,2013-03-21 11:50:00,
2013-03-21 07:55:00,23.0,11.2,29.80,North,351,3.1,3.6,60,0.00,,---,0.00,VWS V14.01,2013-03-21 11:55:00,
2013-03-21 08:00:00,23.7,12.6,29.80,West,274,0.0,2.7,62,0.00,,---,0.00,VWS V14.01,2013-03-21 12:00:00,
2013-03-21 08:05:00,24.8,13.6,29.80,North,351,0.0,0.0,62,0.00,,---,0.00,VWS V14.01,2013-03-21 12:05:00,
2013-03-21 08:10:00,25.7,14.5,29.80,North,351,2.7,2.7,62,0.00,,---,0.00,VWS V14.01,2013-03-21 12:10:00,
2013-03-21 08:15:00,26.4,14.8,29.80,NW,316,3.1,3.1,61,0.00,,---,0.00,VWS V14.01,2013-03-21 12:15:00,
2013-03-21 08:20:00,27.1,14.7,29.80,NNW,330,0.0,0.0,59,0.00,,---,0.00,VWS V14.01,2013-03-21 12:20:00,
2013-03-21 08:25:00,27.9,15.0,29.80,NNW,347,5.4,5.4,58,0.00,,---,0.00,VWS V14.01,2013-03-21 12:25:00,
2013-03-21 08:30:00,28.8,15.9,29.80,NW,324,5.4,5.4,58,0.00,,---,0.00,VWS V14.01,2013-03-21 12:30:00,
2013-03-21 08:35:00,29.3,15.6,29.80,North,351,2.7,3.6,56,0.00,,---,0.00,VWS V14.01,2013-03-21 12:35:00,
2013-03-21 08:40:00,30.0,15.8,29.80,North,351,3.6,3.6,55,0.00,,---,0.00,VWS V14.01,2013-03-21 12:40:00,
2013-03-21 08:45:00,30.9,16.7,29.80,NNW,335,4.0,4.9,55,0.00,,---,0.00,VWS V14.01,2013-03-21 12:45:00,
2013-03-21 08:50:00,30.6,14.1,29.80,NNW,344,4.9,5.8,50,0.00,,---,0.00,VWS V14.01,2013-03-21 12:50:00,
2013-03-21 08:55:00,31.1,14.6,29.80,NW,313,3.1,4.5,50,0.00,,---,0.00,VWS V14.01,2013-03-21 12:55:00,
2013-03-21 09:00:00,31.6,15.1,29.80,NW,317,6.3,6.3,50,0.00,,---,0.00,VWS V14.01,2013-03-21 13:00:00,
2013-03-21 09:05:00,31.8,15.3,29.80,SW,231,3.6,5.8,50,0.00,,---,0.00,VWS V14.01,2013-03-21 13:05:00,
2013-03-21 09:10:00,32.0,15.5,29.80,NW,323,5.4,5.4,50,0.00,,---,0.00,VWS V14.01,2013-03-21 13:10:00,
2013-03-21 09:15:00,31.5,15.0,29.80,North,351,4.9,6.7,50,0.00,,---,0.00,VWS V14.01,2013-03-21 13:15:00,
2013-03-21 09:20:00,32.2,15.6,29.80,NW,309,6.7,6.7,50,0.00,,---,0.00,VWS V14.01,2013-03-21 13:20:00,
2013-03-21 09:25:00,32.7,16.1,29.80,NW,304,4.5,4.5,50,0.00,,---,0.00,VWS V14.01,2013-03-21 13:25:00,
2013-03-21 09:30:00,32.0,14.6,29.80,NW,304,8.7,8.7,48,0.00,,---,0.00,VWS V14.01,2013-03-21 13:30:00,
2013-03-21 09:35:00,32.4,14.9,29.80,NW,317,7.8,7.8,48,0.00,,---,0.00,VWS V14.01,2013-03-21 13:35:00,
2013-03-21 09:40:00,32.5,15.0,29.80,WNW,301,2.7,4.5,48,0.00,,---,0.00,VWS V14.01,2013-03-21 13:40:00,
2013-03-21 09:45:00,33.1,15.1,29.80,NW,313,6.7,8.3,47,0.00,,---,0.00,VWS V14.01,2013-03-21 13:45:00,
2013-03-21 09:50:00,33.6,15.6,29.80,NNW,334,7.8,7.8,47,0.00,,---,0.00,VWS V14.01,2013-03-21 13:50:00,
2013-03-21 09:55:00,34.5,16.4,29.80,NW,320,7.8,8.3,47,0.00,,---,0.00,VWS V14.01,2013-03-21 13:55:00,
2013-03-21 10:00:00,34.9,16.7,29.80,North,351,4.0,5.4,47,0.00,,---,0.00,VWS V14.01,2013-03-21 14:00:00,
2013-03-21 10:05:00,34.9,16.7,29.80,East,87,4.5,6.7,47,0.00,,---,0.00,VWS V14.01,2013-03-21 14:05:00,
2013-03-21 10:10:00,34.2,16.0,29.80,NNW,334,3.6,4.0,47,0.00,,---,0.00,VWS V14.01,2013-03-21 14:10:00,
2013-03-21 10:15:00,34.9,16.7,29.80,NW,304,6.3,6.3,47,0.00,,---,0.00,VWS V14.01,2013-03-21 14:15:00,
2013-03-21 10:20:00,35.8,17.5,29.80,NW,316,5.8,7.8,47,0.00,,---,0.00,VWS V14.01,2013-03-21 14:20:00,
2013-03-21 10:25:00,36.9,18.0,29.80,North,351,4.5,6.3,46,0.00,,---,0.00,VWS V14.01,2013-03-21 14:25:00,
2013-03-21 10:30:00,37.4,18.5,29.80,NNW,340,5.8,7.8,46,0.00,,---,0.00,VWS V14.01,2013-03-21 14:30:00,
2013-03-21 10:35:00,37.9,19.0,29.80,West,273,6.9,10.5,46,0.00,,---,0.00,VWS V14.01,2013-03-21 14:35:00,
2013-03-21 10:40:00,37.6,18.7,29.80,WNW,302,4.0,5.4,46,0.00,,---,0.00,VWS V14.01,2013-03-21 14:40:00,
2013-03-21 10:45:00,36.1,17.9,29.80,North,356,5.4,5.4,47,0.00,,---,0.00,VWS V14.01,2013-03-21 14:45:00,
2013-03-21 10:50:00,35.2,17.0,29.80,West,281,4.5,7.8,47,0.00,,---,0.00,VWS V14.01,2013-03-21 14:50:00,
2013-03-21 10:55:00,36.0,17.7,29.77,North,351,5.4,6.7,47,0.00,,---,0.00,VWS V14.01,2013-03-21 14:55:00,
2013-03-21 11:00:00,36.7,17.9,29.77,ENE,60,4.5,4.5,46,0.00,,---,0.00,VWS V14.01,2013-03-21 15:00:00,
2013-03-21 11:05:00,35.8,17.5,29.77,WSW,248,2.7,4.0,47,0.00,,---,0.00,VWS V14.01,2013-03-21 15:05:00,
2013-03-21 11:10:00,35.6,17.4,29.77,NW,312,4.9,9.2,47,0.00,,---,0.00,VWS V14.01,2013-03-21 15:10:00,
2013-03-21 11:15:00,34.9,16.7,29.77,NW,304,11.6,15.4,47,0.00,,---,0.00,VWS V14.01,2013-03-21 15:15:00,
2013-03-21 11:20:00,34.0,15.9,29.77,NW,311,5.4,10.5,47,0.00,,---,0.00,VWS V14.01,2013-03-21 15:20:00,
2013-03-21 11:25:00,34.3,16.2,29.77,NE,37,8.7,11.2,47,0.00,,---,0.00,VWS V14.01,2013-03-21 15:25:00,
2013-03-21 11:30:00,35.4,17.2,29.77,North,351,4.0,6.7,47,0.00,,---,0.00,VWS V14.01,2013-03-21 15:30:00,
2013-03-21 11:35:00,35.2,17.0,29.77,NNW,328,4.9,18.6,47,0.00,,---,0.00,VWS V14.01,2013-03-21 15:35:00,
2013-03-21 11:40:00,33.8,15.7,29.77,NW,309,7.8,12.1,47,0.00,,---,0.00,VWS V14.01,2013-03-21 15:40:00,
2013-03-21 11:45:00,33.3,15.2,29.77,ENE,66,9.2,11.6,47,0.00,,---,0.00,VWS V14.01,2013-03-21 15:45:00,
2013-03-21 11:50:00,33.6,15.6,29.77,NNW,341,5.4,11.0,47,0.00,,---,0.00,VWS V14.01,2013-03-21 15:50:00,
2013-03-21 11:55:00,34.3,16.2,29.77,NW,321,4.9,8.3,47,0.00,,---,0.00,VWS V14.01,2013-03-21 15:55:00,
2013-03-21 12:00:00,35.4,17.2,29.77,WNW,297,5.8,10.5,47,0.00,,---,0.00,VWS V14.01,2013-03-21 16:00:00,
2013-03-21 12:05:00,36.7,17.9,29.77,North,10,11.2,11.2,46,0.00,,---,0.00,VWS V14.01,2013-03-21 16:05:00,
2013-03-21 12:10:00,36.9,18.0,29.77,NNW,327,9.2,10.5,46,0.00,,---,0.00,VWS V14.01,2013-03-21 16:10:00,
2013-03-21 12:15:00,36.0,17.7,29.77,WNW,299,6.7,13.9,47,0.00,,---,0.00,VWS V14.01,2013-03-21 16:15:00,
2013-03-21 12:20:00,35.2,17.0,29.77,NW,312,7.4,8.3,47,0.00,,---,0.00,VWS V14.01,2013-03-21 16:20:00,
2013-03-21 12:25:00,35.2,17.0,29.77,NW,304,7.8,11.0,47,0.00,,---,0.00,VWS V14.01,2013-03-21 16:25:00,
2013-03-21 12:30:00,34.5,16.4,29.77,NNW,331,15.2,16.8,47,0.00,,---,0.00,VWS V14.01,2013-03-21 16:30:00,
2013-03-21 12:35:00,34.0,15.9,29.77,NW,315,10.5,18.1,47,0.00,,---,0.00,VWS V14.01,2013-03-21 16:35:00,
2013-03-21 12:40:00,33.8,15.7,29.77,NW,304,8.7,11.6,47,0.00,,---,0.00,VWS V14.01,2013-03-21 16:40:00,
2013-03-21 12:45:00,34.7,16.5,29.77,NW,313,9.6,9.6,47,0.00,,---,0.00,VWS V14.01,2013-03-21 16:45:00,
2013-03-21 12:50:00,36.3,18.0,29.77,SE,136,0.0,5.8,47,0.00,,---,0.00,VWS V14.01,2013-03-21 16:50:00,
2013-03-21 12:55:00,36.7,17.9,29.77,NNW,331,12.5,12.5,46,0.00,,---,0.00,VWS V14.01,2013-03-21 16:55:00,
2013-03-21 13:00:00,35.8,17.5,29.77,NNW,345,7.4,7.8,47,0.00,,---,0.00,VWS V14.01,2013-03-21 17:00:00,
2013-03-21 13:05:00,34.5,16.4,29.77,NW,306,7.4,9.2,47,0.00,,---,0.00,VWS V14.01,2013-03-21 17:05:00,
2013-03-21 13:10:00,33.6,15.6,29.77,NNW,346,0.0,7.8,47,0.00,,---,0.00,VWS V14.01,2013-03-21 17:10:00,
2013-03-21 13:15:00,34.0,15.9,29.77,NNW,332,5.4,7.4,47,0.00,,---,0.00,VWS V14.01,2013-03-21 17:15:00,
2013-03-21 13:20:00,35.4,17.2,29.77,SE,143,3.6,10.1,47,0.00,,---,0.00,VWS V14.01,2013-03-21 17:20:00,
2013-03-21 13:25:00,36.7,17.9,29.77,NNW,327,5.4,9.2,46,0.00,,---,0.00,VWS V14.01,2013-03-21 17:25:00,
2013-03-21 13:30:00,38.1,19.2,29.77,WNW,289,6.3,12.5,46,0.00,,---,0.00,VWS V14.01,2013-03-21 17:30:00,
2013-03-21 13:35:00,37.8,18.9,29.77,NW,318,6.3,8.7,46,0.00,,---,0.00,VWS V14.01,2013-03-21 17:35:00,
2013-03-21 13:39:00,36.5,17.7,29.74,WSW,250,4.9,8.7,46,0.00,,---,0.00,VWS V14.01,2013-03-21 17:39:00,
2013-03-21 13:44:00,36.0,17.7,29.74,NW,308,6.7,9.2,47,0.00,,---,0.00,VWS V14.01,2013-03-21 17:44:00,
2013-03-21 13:49:00,36.0,17.7,29.74,North,356,11.2,14.3,47,0.00,,---,0.00,VWS V14.01,2013-03-21 17:49:00,
2013-03-21 13:54:00,34.7,16.5,29.77,NW,319,6.3,11.2,47,0.00,,---,0.00,VWS V14.01,2013-03-21 17:54:00,
2013-03-21 13:59:00,34.2,16.0,29.77,NW,315,7.8,9.6,47,0.00,,---,0.00,VWS V14.01,2013-03-21 17:59:00,
2013-03-21 14:04:00,34.9,16.7,29.77,NW,316,8.7,8.7,47,0.00,,---,0.00,VWS V14.01,2013-03-21 18:04:00,
2013-03-21 14:09:00,36.1,17.9,29.74,WSW,245,4.0,6.9,47,0.00,,---,0.00,VWS V14.01,2013-03-21 18:09:00,
2013-03-21 14:14:00,37.0,18.2,29.74,WNW,289,5.4,11.2,46,0.00,,---,0.00,VWS V14.01,2013-03-21 18:14:00,
2013-03-21 14:19:00,37.0,18.2,29.74,ENE,74,3.1,4.9,46,0.00,,---,0.00,VWS V14.01,2013-03-21 18:19:00,
2013-03-21 14:24:00,36.9,18.0,29.74,NW,307,6.9,10.1,46,0.00,,---,0.00,VWS V14.01,2013-03-21 18:24:00,
2013-03-21 14:29:00,36.1,17.9,29.74,NNE,12,9.2,11.0,47,0.00,,---,0.00,VWS V14.01,2013-03-21 18:29:00,
2013-03-21 14:34:00,35.6,17.4,29.74,North,351,6.9,7.4,47,0.00,,---,0.00,VWS V14.01,2013-03-21 18:34:00,
2013-03-21 14:39:00,36.3,18.0,29.74,NW,317,3.1,11.0,47,0.00,,---,0.00,VWS V14.01,2013-03-21 18:39:00,
2013-03-21 14:44:00,36.9,18.0,29.74,North,351,3.6,8.3,46,0.00,,---,0.00,VWS V14.01,2013-03-21 18:44:00,
2013-03-21 14:49:00,37.8,18.9,29.74,NNW,337,6.3,9.2,46,0.00,,---,0.00,VWS V14.01,2013-03-21 18:49:00,
2013-03-21 14:54:00,37.8,18.9,29.74,NW,309,7.4,13.0,46,0.00,,---,0.00,VWS V14.01,2013-03-21 18:54:00,
2013-03-21 14:59:00,36.3,18.0,29.74,ENE,59,5.8,10.1,47,0.00,,---,0.00,VWS V14.01,2013-03-21 18:59:00,
2013-03-21 15:04:00,35.2,17.0,29.74,NNW,347,11.2,14.3,47,0.00,,---,0.00,VWS V14.01,2013-03-21 19:04:00,
2013-03-21 15:09:00,34.3,16.2,29.74,North,1,6.7,6.7,47,0.00,,---,0.00,VWS V14.01,2013-03-21 19:09:00,
2013-03-21 15:14:00,33.6,15.6,29.74,North,8,4.9,9.6,47,0.00,,---,0.00,VWS V14.01,2013-03-21 19:14:00,
2013-03-21 15:19:00,33.6,15.6,29.74,ENE,58,5.8,6.7,47,0.00,,---,0.00,VWS V14.01,2013-03-21 19:19:00,
2013-03-21 15:24:00,33.8,15.7,29.74,NW,326,6.9,8.7,47,0.00,,---,0.00,VWS V14.01,2013-03-21 19:24:00,
2013-03-21 15:29:00,33.6,15.6,29.74,NNW,340,7.4,9.2,47,0.00,,---,0.00,VWS V14.01,2013-03-21 19:29:00,
2013-03-21 15:34:00,33.1,15.1,29.74,NW,305,7.4,15.4,47,0.00,,---,0.00,VWS V14.01,2013-03-21 19:34:00,
2013-03-21 15:39:00,32.7,15.2,29.74,SW,221,12.1,15.2,48,0.00,,---,0.00,VWS V14.01,2013-03-21 19:39:00,
2013-03-21 15:44:00,32.5,15.0,29.74,WNW,287,12.1,12.1,48,0.00,,---,0.00,VWS V14.01,2013-03-21 19:44:00,
2013-03-21 15:49:00,32.7,15.2,29.74,NW,313,8.3,12.1,48,0.00,,---,0.00,VWS V14.01,2013-03-21 19:49:00,
2013-03-21 15:54:00,33.3,15.2,29.74,NNW,333,6.7,9.2,47,0.00,,---,0.00,VWS V14.01,2013-03-21 19:54:00,
2013-03-21 15:59:00,33.8,15.7,29.74,NNW,347,5.4,7.8,47,0.00,,---,0.00,VWS V14.01,2013-03-21 19:59:00,
2013-03-21 16:04:00,33.8,15.7,29.74,NNW,340,6.3,14.3,47,0.00,,---,0.00,VWS V14.01,2013-03-21 20:04:00,
2013-03-21 16:09:00,33.4,15.4,29.74,NW,314,7.8,14.3,47,0.00,,---,0.00,VWS V14.01,2013-03-21 20:09:00,
2013-03-21 16:14:00,33.1,15.1,29.74,NW,313,4.0,7.4,47,0.00,,---,0.00,VWS V14.01,2013-03-21 20:14:00,
2013-03-21 16:19:00,32.7,15.2,29.74,NNW,331,8.7,13.0,48,0.00,,---,0.00,VWS V14.01,2013-03-21 20:19:00,
2013-03-21 16:24:00,32.4,14.9,29.74,WNW,293,6.9,15.9,48,0.00,,---,0.00,VWS V14.01,2013-03-21 20:24:00,
2013-03-21 16:29:00,32.0,14.6,29.74,NNW,336,6.3,11.0,48,0.00,,---,0.00,VWS V14.01,2013-03-21 20:29:00,
2013-03-21 16:34:00,32.0,14.6,29.74,WNW,300,6.7,8.7,48,0.00,,---,0.00,VWS V14.01,2013-03-21 20:34:00,
2013-03-21 16:39:00,32.7,15.2,29.74,WNW,290,7.4,11.0,48,0.00,,---,0.00,VWS V14.01,2013-03-21 20:39:00,
2013-03-21 16:44:00,33.4,15.4,29.74,WNW,296,5.8,12.1,47,0.00,,---,0.00,VWS V14.01,2013-03-21 20:44:00,
2013-03-21 16:49:00,33.3,15.2,29.74,NNW,330,11.0,11.0,47,0.00,,---,0.00,VWS V14.01,2013-03-21 20:49:00,
2013-03-21 16:54:00,32.9,14.9,29.74,NNW,332,6.3,8.7,47,0.00,,---,0.00,VWS V14.01,2013-03-21 20:54:00,
2013-03-21 16:59:00,32.5,15.0,29.74,NW,324,3.1,5.4,48,0.00,,---,0.00,VWS V14.01,2013-03-21 20:59:00,
2013-03-21 17:04:00,32.2,14.7,29.74,NNW,331,4.9,13.4,48,0.00,,---,0.00,VWS V14.01,2013-03-21 21:04:00,
2013-03-21 17:09:00,31.5,12.6,29.74,NW,317,7.8,11.2,45,0.00,,---,0.00,VWS V14.01,2013-03-21 21:09:00,
2013-03-21 17:14:00,31.3,12.4,29.74,NW,321,9.2,13.0,45,0.00,,---,0.00,VWS V14.01,2013-03-21 21:14:00,
2013-03-21 17:19:00,31.8,14.4,29.74,NW,322,6.9,11.2,48,0.00,,---,0.00,VWS V14.01,2013-03-21 21:19:00,
2013-03-21 17:24:00,32.2,14.7,29.74,NNW,342,6.7,13.0,48,0.00,,---,0.00,VWS V14.01,2013-03-21 21:24:00,
2013-03-21 17:29:00,32.2,14.7,29.74,NW,313,6.7,10.5,48,0.00,,---,0.00,VWS V14.01,2013-03-21 21:29:00,
2013-03-21 17:34:00,32.2,14.7,29.74,NNW,346,9.2,12.5,48,0.00,,---,0.00,VWS V14.01,2013-03-21 21:34:00,
2013-03-21 17:39:00,32.2,14.7,29.74,NNW,342,6.9,8.7,48,0.00,,---,0.00,VWS V14.01,2013-03-21 21:39:00,
2013-03-21 17:44:00,32.5,15.0,29.74,NW,321,6.7,10.1,48,0.00,,---,0.00,VWS V14.01,2013-03-21 21:44:00,
2013-03-21 17:50:00,32.7,15.2,29.74,WNW,295,14.3,14.3,48,0.00,,---,0.00,VWS V14.01,2013-03-21 21:50:00,
2013-03-21 17:55:00,32.5,15.0,29.74,SE,126,11.6,15.4,48,0.00,,---,0.00,VWS V14.01,2013-03-21 21:55:00,
2013-03-21 18:00:00,32.2,13.2,29.74,NNW,347,5.8,15.2,45,0.00,,---,0.00,VWS V14.01,2013-03-21 22:00:00,
2013-03-21 18:05:00,31.6,12.8,29.74,NW,313,13.4,13.4,45,0.00,,---,0.00,VWS V14.01,2013-03-21 22:05:00,
2013-03-21 18:10:00,31.3,12.4,29.74,WNW,290,8.7,12.1,45,0.00,,---,0.00,VWS V14.01,2013-03-21 22:10:00,
2013-03-21 18:15:00,31.3,12.4,29.74,NW,312,10.5,14.8,45,0.00,,---,0.00,VWS V14.01,2013-03-21 22:15:00,
2013-03-21 18:20:00,31.1,12.2,29.74,NNW,335,8.3,11.0,45,0.00,,---,0.00,VWS V14.01,2013-03-21 22:20:00,
2013-03-21 18:25:00,31.1,12.2,29.74,NW,313,8.7,11.2,45,0.00,,---,0.00,VWS V14.01,2013-03-21 22:25:00,
2013-03-21 18:30:00,30.9,12.1,29.74,NW,307,4.9,11.2,45,0.00,,---,0.00,VWS V14.01,2013-03-21 22:30:00,
2013-03-21 18:35:00,30.7,11.9,29.74,NW,322,6.9,14.8,45,0.00,,---,0.00,VWS V14.01,2013-03-21 22:35:00,
2013-03-21 18:40:00,30.4,11.6,29.74,NW,309,8.3,13.0,45,0.00,,---,0.00,VWS V14.01,2013-03-21 22:40:00,
2013-03-21 18:45:00,30.0,11.3,29.74,WNW,296,6.7,10.1,45,0.00,,---,0.00,VWS V14.01,2013-03-21 22:45:00,
2013-03-21 18:49:00,29.8,11.1,29.74,WNW,298,6.9,13.9,45,0.00,,---,0.00,VWS V14.01,2013-03-21 22:49:00,
2013-03-21 18:54:00,29.7,10.9,29.74,WNW,283,5.4,9.2,45,0.00,,---,0.00,VWS V14.01,2013-03-21 22:54:00,
2013-03-21 18:59:00,29.5,10.8,29.74,NNE,24,5.4,5.4,45,0.00,,---,0.00,VWS V14.01,2013-03-21 22:59:00,
2013-03-21 19:04:00,29.3,10.6,29.74,NW,313,8.7,9.2,45,0.00,,---,0.00,VWS V14.01,2013-03-21 23:04:00,
2013-03-21 19:10:00,29.3,11.1,29.77,North,9,4.0,8.3,46,0.00,,---,0.00,VWS V14.01,2013-03-21 23:10:00,
2013-03-21 19:15:00,29.3,11.1,29.77,West,273,8.3,8.3,46,0.00,,---,0.00,VWS V14.01,2013-03-21 23:15:00,
2013-03-21 19:20:00,29.1,10.9,29.77,North,351,2.7,8.3,46,0.00,,---,0.00,VWS V14.01,2013-03-21 23:20:00,
2013-03-21 19:25:00,28.9,10.8,29.77,North,351,3.6,6.3,46,0.00,,---,0.00,VWS V14.01,2013-03-21 23:25:00,
2013-03-21 19:30:00,28.8,10.6,29.77,NNW,346,3.1,7.4,46,0.00,,---,0.00,VWS V14.01,2013-03-21 23:30:00,
2013-03-21 19:35:00,28.8,10.6,29.77,NNW,336,5.8,6.7,46,0.00,,---,0.00,VWS V14.01,2013-03-21 23:35:00,
2013-03-21 19:39:00,28.8,10.6,29.77,NNW,346,4.9,5.4,46,0.00,,---,0.00,VWS V14.01,2013-03-21 23:39:00,
2013-03-21 19:44:00,28.8,10.6,29.77,NW,312,5.4,5.4,46,0.00,,---,0.00,VWS V14.01,2013-03-21 23:44:00,
2013-03-21 19:49:00,28.8,10.6,29.77,NNW,346,4.5,4.9,46,0.00,,---,0.00,VWS V14.01,2013-03-21 23:49:00,
2013-03-21 19:54:00,28.8,10.6,29.77,North,351,0.0,6.9,46,0.00,,---,0.00,VWS V14.01,2013-03-21 23:54:00,
2013-03-21 19:59:00,28.8,10.6,29.77,NNW,327,4.9,6.3,46,0.00,,---,0.00,VWS V14.01,2013-03-21 23:59:00,
2013-03-21 20:04:00,28.6,10.4,29.77,North,351,4.5,5.4,46,0.00,,---,0.00,VWS V14.01,2013-03-22 00:04:00,
2013-03-21 20:09:00,28.6,10.4,29.77,NW,318,4.0,7.8,46,0.00,,---,0.00,VWS V14.01,2013-03-22 00:09:00,
2013-03-21 20:14:00,28.6,10.4,29.77,NW,305,5.4,6.7,46,0.00,,---,0.00,VWS V14.01,2013-03-22 00:14:00,
2013-03-21 20:19:00,28.6,10.4,29.77,NW,309,3.1,8.7,46,0.00,,---,0.00,VWS V14.01,2013-03-22 00:19:00,
2013-03-21 20:24:00,28.8,10.6,29.77,North,351,4.5,8.3,46,0.00,,---,0.00,VWS V14.01,2013-03-22 00:24:00,
2013-03-21 20:29:00,28.8,10.6,29.77,WNW,303,6.7,9.2,46,0.00,,---,0.00,VWS V14.01,2013-03-22 00:29:00,
2013-03-21 20:34:00,28.8,10.6,29.77,SW,236,2.7,4.0,46,0.00,,---,0.00,VWS V14.01,2013-03-22 00:34:00,
2013-03-21 20:39:00,28.8,10.6,29.77,NE,38,2.7,4.9,46,0.00,,---,0.00,VWS V14.01,2013-03-22 00:39:00,
2013-03-21 20:44:00,28.8,10.6,29.77,West,264,3.6,8.3,46,0.00,,---,0.00,VWS V14.01,2013-03-22 00:44:00,
2013-03-21 20:49:00,28.8,10.6,29.77,WNW,287,5.4,8.7,46,0.00,,---,0.00,VWS V14.01,2013-03-22 00:49:00,
2013-03-21 20:54:00,28.8,10.6,29.80,NW,322,6.3,6.7,46,0.00,,---,0.00,VWS V14.01,2013-03-22 00:54:00,
2013-03-21 20:59:00,28.8,10.6,29.80,NW,304,7.4,8.7,46,0.00,,---,0.00,VWS V14.01,2013-03-22 00:59:00,
2013-03-21 21:04:00,28.6,10.4,29.80,WNW,283,7.8,11.2,46,0.00,,---,0.00,VWS V14.01,2013-03-22 01:04:00,
2013-03-21 21:09:00,28.6,10.4,29.80,West,270,5.8,8.3,46,0.00,,---,0.00,VWS V14.01,2013-03-22 01:09:00,
2013-03-21 21:14:00,28.4,10.3,29.80,WNW,290,6.9,9.2,46,0.00,,---,0.00,VWS V14.01,2013-03-22 01:14:00,
2013-03-21 21:19:00,28.4,10.3,29.80,NW,306,4.9,7.8,46,0.00,,---,0.00,VWS V14.01,2013-03-22 01:19:00,
2013-03-21 21:24:00,28.2,10.1,29.80,WNW,293,4.9,11.2,46,0.00,,---,0.00,VWS V14.01,2013-03-22 01:24:00,
2013-03-21 21:29:00,28.2,10.1,29.80,NW,304,4.9,7.4,46,0.00,,---,0.00,VWS V14.01,2013-03-22 01:29:00,
2013-03-21 21:34:00,28.0,9.9,29.80,NW,321,9.2,9.2,46,0.00,,---,0.00,VWS V14.01,2013-03-22 01:34:00,
2013-03-21 21:39:00,28.0,9.9,29.80,North,351,5.4,7.4,46,0.00,,---,0.00,VWS V14.01,2013-03-22 01:39:00,
2013-03-21 21:44:00,27.9,9.8,29.80,NW,309,11.0,11.0,46,0.00,,---,0.00,VWS V14.01,2013-03-22 01:44:00,
2013-03-21 21:49:00,27.7,9.6,29.80,NW,326,6.9,11.2,46,0.00,,---,0.00,VWS V14.01,2013-03-22 01:49:00,
2013-03-21 21:54:00,27.5,10.4,29.80,NW,317,5.8,6.7,48,0.00,,---,0.00,VWS V14.01,2013-03-22 01:54:00,
2013-03-21 21:59:00,27.5,10.9,29.80,NW,309,5.8,5.8,49,0.00,,---,0.00,VWS V14.01,2013-03-22 01:59:00,
2013-03-21 22:04:00,27.3,10.7,29.80,NW,307,6.9,8.7,49,0.00,,---,0.00,VWS V14.01,2013-03-22 02:04:00,
2013-03-21 22:09:00,27.3,10.7,29.80,North,351,5.4,6.7,49,0.00,,---,0.00,VWS V14.01,2013-03-22 02:09:00,
2013-03-21 22:14:00,27.1,10.5,29.80,NNW,346,6.3,8.7,49,0.00,,---,0.00,VWS V14.01,2013-03-22 02:14:00,
2013-03-21 22:19:00,27.1,10.5,29.80,NW,316,6.7,10.1,49,0.00,,---,0.00,VWS V14.01,2013-03-22 02:19:00,
2013-03-21 22:24:00,27.1,10.5,29.80,West,266,5.8,6.3,49,0.00,,---,0.00,VWS V14.01,2013-03-22 02:24:00,
2013-03-21 22:29:00,27.1,10.5,29.80,WSW,238,4.0,5.4,49,0.00,,---,0.00,VWS V14.01,2013-03-22 02:29:00,
2013-03-21 22:34:00,27.0,10.4,29.80,WNW,285,5.4,9.2,49,0.00,,---,0.00,VWS V14.01,2013-03-22 02:34:00,
2013-03-21 22:39:00,27.0,10.4,29.80,NNW,346,4.0,6.3,49,0.00,,---,0.00,VWS V14.01,2013-03-22 02:39:00,
2013-03-21 22:44:00,27.0,10.4,29.80,WNW,294,5.4,6.9,49,0.00,,---,0.00,VWS V14.01,2013-03-22 02:44:00,
2013-03-21 22:49:00,26.8,10.2,29.80,West,279,7.4,7.4,49,0.00,,---,0.00,VWS V14.01,2013-03-22 02:49:00,
2013-03-21 22:54:00,26.6,10.0,29.80,NW,322,4.0,9.2,49,0.00,,---,0.00,VWS V14.01,2013-03-22 02:54:00,
2013-03-21 22:59:00,26.6,10.0,29.80,NNW,329,5.8,6.7,49,0.00,,---,0.00,VWS V14.01,2013-03-22 02:59:00,
2013-03-21 23:04:00,26.4,9.9,29.80,West,259,4.5,7.4,49,0.00,,---,0.00,VWS V14.01,2013-03-22 03:04:00,
2013-03-21 23:09:00,26.2,9.7,29.80,NNW,342,4.9,5.4,49,0.00,,---,0.00,VWS V14.01,2013-03-22 03:09:00,
2013-03-21 23:14:00,26.2,9.7,29.80,NW,320,5.8,8.3,49,0.00,,---,0.00,VWS V14.01,2013-03-22 03:14:00,
2013-03-21 23:19:00,26.1,9.5,29.80,WNW,291,6.9,7.8,49,0.00,,---,0.00,VWS V14.01,2013-03-22 03:19:00,
2013-03-21 23:24:00,26.1,10.4,29.80,West,281,6.3,8.3,51,0.00,,---,0.00,VWS V14.01,2013-03-22 03:24:00,
2013-03-21 23:29:00,25.9,10.3,29.80,WNW,289,6.3,6.7,51,0.00,,---,0.00,VWS V14.01,2013-03-22 03:29:00,
2013-03-21 23:34:00,25.9,10.3,29.80,NW,312,5.8,6.9,51,0.00,,---,0.00,VWS V14.01,2013-03-22 03:34:00,
2013-03-21 23:39:00,25.9,10.3,29.80,West,281,6.9,9.6,51,0.00,,---,0.00,VWS V14.01,2013-03-22 03:39:00,
2013-03-21 23:44:00,25.9,11.5,29.80,West,274,6.7,9.6,54,0.00,,---,0.00,VWS V14.01,2013-03-22 03:44:00,
2013-03-21 23:49:00,25.9,11.5,29.80,WSW,240,6.9,11.6,54,0.00,,---,0.00,VWS V14.01,2013-03-22 03:49:00,
2013-03-21 23:54:00,25.9,11.5,29.80,WNW,297,5.8,8.7,54,0.00,,---,0.00,VWS V14.01,2013-03-22 03:54:00,
2013-03-21 23:59:00,25.7,11.4,29.80,WNW,282,4.5,5.4,54,0.00,,---,0.00,VWS V14.01,2013-03-22 03:59:00,